Boise, ID

11:20 PM MDT on August 19, 2017 (GMT -0600)
Boise Air Term

Weather History for KBOI - August, 2013

Change the Weather History Date:

Friday, August 2, 2013

  Actual Average Record
Temperature  
Mean Temperature 69 °F 77 °F  
Max Temperature 83 °F 93 °F 103 °F (1947)
Min Temperature 54 °F 62 °F 43 °F (1988)
Degree Days  
Heating Degree Days 0 0  
Month to date heating degree days 0 0  
Since 1 June heating degree days 35 72  
Since 1 July heating degree days 0 8  
Cooling Degree Days 4 12  
Month to date cooling degree days 16 24  
Year to date cooling degree days 770 549  
Since 1 June cooling degree days 723 505  
Growing Degree Days 18 (Base 50)    
Moisture  
Dew Point 41 °F    
Average Humidity 45    
Maximum Humidity 72    
Minimum Humidity 17    
Precipitation  
Precipitation 0.00 in 0.01 in 0.06 in (1953)
Month to date precipitation T 0.02  
Year to date precipitation 4.46 7.28  
Snow  
Snow 0.00 in 0.00 in 0.00 in (2006)
Month to date snowfall 0.0 0.0  
Since 1 July snowfall 0.0 0.0  
Snow Depth 0.00 in    
Sea Level Pressure  
Sea Level Pressure 29.94 in    
Wind  
Wind Speed 5 mph (WNW)    
Max Wind Speed 16 mph    
Max Gust Speed 22 mph    
Visibility 10 miles    
Events      
T = Trace of Precipitation, MM = Missing Value Source: NWS Daily Summary

Daily Weather History Graph

Daily Weather History Graph

Search for Another Location

Airport or City:

Trip Planner

Search our weather history database for the weather conditions in past years. The results will help you decide how hot, cold, wet, or windy it might be!

Date:

Astronomy

Aug. 02, 2013 Rise Set
Actual Time 6:35 AM MDT 9:05 PM MDT
Civil Twilight 6:03 AM MDT 9:38 PM MDT
Nautical Twilight 5:22 AM MDT 10:18 PM MDT
Astronomical Twilight 4:36 AM MDT 11:04 PM MDT
Moon 2:58 AM MDT (8/2) 6:08 PM MDT (8/2)
Length of Visible Light 15h 35m
Length of Day
14h 30m
Waning Crescent, 15% of the Moon is Illuminated
Aug 2
Waning Crescent
Aug 6
New
Aug 14
First Quarter
Aug 20
Full
Aug 28
Last Quarter

Hourly Weather History & Observations

Time (MDT) Temp. Dew Point Humidity Pressure Visibility Wind Dir Wind Speed Gust Speed Precip Events Conditions
12:53 AM 64.0 °F 45.0 °F 50% 29.88 in 10.0 mi NW 5.8 mph - N/A   Clear
1:53 AM 62.1 °F 45.0 °F 53% 29.89 in 10.0 mi NW 4.6 mph - N/A   Clear
2:53 AM 59.0 °F 45.0 °F 60% 29.91 in 10.0 mi West 3.5 mph - N/A   Clear
3:53 AM 57.0 °F 46.9 °F 69% 29.92 in 10.0 mi NNW 4.6 mph - N/A   Clear
4:53 AM 55.0 °F 45.0 °F 69% 29.94 in 10.0 mi SSE 5.8 mph - N/A   Clear
5:53 AM 54.0 °F 45.0 °F 72% 29.95 in 9.0 mi Calm Calm - N/A   Clear
6:53 AM 55.0 °F 46.9 °F 74% 29.97 in 10.0 mi Calm Calm - N/A   Clear
7:53 AM 59.0 °F 46.9 °F 64% 30.00 in 10.0 mi Calm Calm - N/A   Clear
8:53 AM 62.1 °F 46.9 °F 58% 30.01 in 10.0 mi Calm Calm - N/A   Clear
9:53 AM 64.9 °F 48.0 °F 54% 30.02 in 10.0 mi West 5.8 mph - N/A   Clear
10:53 AM 68.0 °F 48.0 °F 49% 30.01 in 10.0 mi Calm Calm - N/A   Clear
11:53 AM 71.1 °F 46.9 °F 42% 30.00 in 10.0 mi Variable 4.6 mph - N/A   Clear
12:53 PM 77.0 °F 44.1 °F 31% 29.99 in 10.0 mi West 8.1 mph - N/A   Clear
1:53 PM 77.0 °F 39.9 °F 26% 29.97 in 10.0 mi Variable 3.5 mph - N/A   Clear
2:53 PM 80.1 °F 39.0 °F 23% 29.96 in 10.0 mi WNW 10.4 mph - N/A   Clear
3:53 PM 80.1 °F 37.0 °F 21% 29.95 in 10.0 mi Variable 6.9 mph - N/A   Clear
4:53 PM 82.0 °F 36.0 °F 19% 29.93 in 10.0 mi WNW 8.1 mph 19.6 mph N/A   Clear
5:53 PM 82.9 °F 33.1 °F 17% 29.91 in 10.0 mi NNW 16.1 mph - N/A   Clear
6:53 PM 82.0 °F 34.0 °F 18% 29.90 in 10.0 mi North 10.4 mph - N/A   Clear
7:53 PM 81.0 °F 33.1 °F 18% 29.89 in 10.0 mi NNW 16.1 mph - N/A   Clear
8:53 PM 78.1 °F 30.9 °F 18% 29.90 in 10.0 mi NNW 4.6 mph - N/A   Clear
9:53 PM 75.0 °F 30.0 °F 19% 29.90 in 10.0 mi NNW 3.5 mph - N/A   Clear
10:53 PM 71.1 °F 28.9 °F 21% 29.91 in 10.0 mi WSW 3.5 mph - N/A   Clear
11:53 PM 68.0 °F 37.0 °F 32% 29.92 in 10.0 mi West 5.8 mph - N/A   Clear